Probability
0 0 0 0 0 0 0 0 0 0 0 0 0 0 0 0 0 0 0 0 0 0 0 0 0 0 0 0 0 0 0 0 0 0 0 0 0 0 0 0 0 0 0
0 0 0 0 0 0 0 0 0 0 0 0 0 0 0 0 0 0 0 0 0 0 0 0 0 0 0 0 0 0 0 0 0 0 0 0 0 0 0 0 0 0 0
0 0 0 0 0 0 0 0 0 0 0 0 0 0 0 0 0 0 0 0 0 0 0 0 0 0 0 0 0 0 0 0 0 0 0 0 0 0 0 0 0 0 0
0 0 0 0 0 0 0 0 0 0 0 0 0 0 0 0 0 0 0 0 0 0 0 0 0 0 0 0 0 0 0 0 0 0 0 0 0 0 0 0 0 0 0
0 0 0 0 0 0 0 0 0 0 0 0 0 0 0 0 0 0 0 0 0 0 0 0 0 0 0 0 0 0 0 0 0 0 0 0 0 0 0 0 0 0 0
0 0 0 0 0 0 0 0 0 0 0 0 0 0 0 0 0 0 0 0 0 0 0 0 0 0 0 0 0 0 0 0 0 0 0 0 0 0 0 0 0 0 0
0 0 0 0 0 0 0 0 0 0 0 0 0 0 0 0 0 0 0 0 0 0 0 0 0 0 0 0 0 0 0 0 0 0 0 0 0 0 0 0 0 0 0
0 0 0 0 0 0 0 0 0 0 0 0 0 0 0 0 0 0 0 0 0 0 0 0 0 0 0 0 0 0 0 0 0 0 0 0 0 0 0 0 0 0 0
0 0 0 0 0 0 0 0 0 0 0 0 0 0 0 0 0 0 0 0 0 0 0 0 0 0 0 0 0 0 0 0 0 0 0 0 0 0 0 0 0 0 0
0 0 0 0 0 0 0 0 0 0 0 0 0 0 0 0 0 0 0 0 0 0 0 0 0 0 0 0 0 0 0 0 0 0 0 0 0 0 0 0 0 0 0
0 0 0 0 0 0 0 0 0 0 0 0 0 0 0 0 0 0 0 0 0 0 0 0 0 0 0 0 0 0 0 0 0 0 0 0 0 0 0 0 0 0 0
0 0 0 0 0 0 0 0 0 0 0 0 0 0 0 0 0 0 0 0 0 0 0 0 0 0 0 0 0 0 0 0 0 0 0 0 0 0 0 0 0 0 0
0 0 0 0 0 0 0 0 0 0 0 0 0 0 0 0 0 0 0 0 0 0 0 0 0 0 0 0 0 0 0 0 0 0 0 0 0 0 0 0 0 0 0
0 0 0 0 0 0 0 0 0 0 0 0 0 0 0 0 0 0 0 0 0 0 0 0 0 0 0 0 0 0 0 0 0 0 0 0 0 0 0 0 0 0 0
0 0 0 0 0 0 0 0 0 0 0 0 0 0 0 0 0 0 0 0 0 0 0 0 0 0 0 0 0 0 0 0 0 0 0 0 0 0 0 0 0 0 0
0 0 0 0 0 0 0 0 0 0 0 0 0 0 0 0 0 0 0 0 0 0 0 0 0 0 0 0 0 0 0 0 0 0 0 0 0 0 0 0 0 0 0
0 0 0 0 0 0 0 0 0 0 0 0 0 0 0 0 0 0 0 0 0 0 0 0 0 0 0 0 0 0 0 0 0 0 0 0 0 0 0 0 0 0 0
0 0 0 0 0 0 0 0 0 0 0 0 0 0 0 0 0 0 0 0 0 0 0 0 0 0 0 0 0 0 0 0 0 0 0 0 0 0 0 0 0 0 0
0 0 0 0 0 0 0 0 0 0 0 0 0 0 0 0 0 0 0 0 0 0 0 0 0 0 0 0 0 0 0 0 0 0 0 0 0 0 0 0 0 0 0
0 0 0 0 0 0 0 0 0 0 0 0 0 0 0 0 0 0 0 0 0 0 0 0 0 0 0 0 0 0 0 0 0 0 0 0 0 0 0 0 0 0 0
0 0 0 0 0 0 0 0 0 0 0 0 0 0 0 0 0 0 0 0 0 0 0 0 0 0 0 0 0 0 0 0 0 0 0 0 0 0 0 0 0 0 0
0 0 0 0 0 0 0 0 0 0 0 0 0 0 0 0 0 0 0 0 0 0 0 0 0 0 0 0 0 0 0 0 0 0 0 0 0 0 0 0 0 0 0
0 0 0 0 0 0 0 0 0 0 0 0 0 0 0 0 0 0 0 0 0 0 0 0 0 0 0 0 0 0 0 0 0 0 0 0 0 0 0 0 0 0 0
0 0 0 0 0 0 0 0 0 0 0 0 0 0 0 0 0 0 0 0 0 0 0 0 0 0 0 0 0 0 0 0 0 0 0 0 0 0 0 0 0 0 0
0 0 0 0 0 0 0 0 0 0 0 0 0 0 0 0 0 0 0 0 0 0 0 0 0 0 0 0 0 0 0 0 0 0 0 0 0 0 0 0 0 0 0
0 0 0 0 0 0 0 0 0 0 0 0 0 0 0 0 0 0 0 0 0 0 0 0 0 0 0 0 0 0 0 0 0 0 0 0 0 0 0 0 0 0 0
Wind_Speed
5 4 4 3 3 3 2 3 2 2 1 1 1 1 1 2 2 2 2 2 3 3 3 3 3 3 2 2 1 1 1 2 3 3 2 2 3 4 4 3 4 4 5
4 4 4 3 2 3 3 3 2 2 2 1 1 1 1 1 1 1 2 2 2 3 4 3 4 3 3 2 1 1 2 2 3 4 3 2 3 4 4 4 4 4 4
4 4 4 3 3 4 4 3 2 2 2 1 1 2 2 2 2 2 2 2 2 3 3 3 4 3 3 2 2 2 2 2 2 3 3 2 3 2 3 3 4 3 4
4 4 5 5 4 4 4 3 3 3 2 2 2 3 3 3 3 3 2 2 3 3 3 3 3 3 4 3 3 3 2 2 2 2 3 3 3 3 2 3 3 2 3
5 5 6 5 4 4 4 4 3 3 4 3 3 3 3 3 3 3 3 3 3 4 4 3 4 5 5 3 2 2 2 2 2 2 3 2 3 2 2 2 3 3 4
5 6 5 4 4 4 5 4 4 4 4 3 4 4 4 4 6 6 4 3 3 3 4 4 5 4 5 6 7 5 3 2 3 2 3 3 4 3 3 3 3 3 3
6 5 4 4 5 5 4 4 5 5 4 4 5 4 5 7 9 9 7 3 3 3 4 4 4 4 5 4 5 7 6 6 5 4 5 5 4 3 3 4 4 4 5
5 5 4 4 5 4 4 5 5 4 4 5 5 5 5 8 10 9 8 3 3 4 4 4 4 5 4 4 3 4 5 5 5 4 5 6 6 5 5 5 5 6 5
4 4 4 4 4 4 4 5 4 4 5 5 5 5 6 8 10 9 7 2 3 5 4 4 4 5 8 7 4 5 6 5 6 7 8 9 12 12 8 5 5 5 5
4 3 3 3 3 4 4 4 3 3 4 4 5 5 6 7 9 10 7 2 3 4 4 4 6 6 8 7 4 4 6 6 5 6 6 7 7 8 9 6 5 5 4
2 1 1 1 2 2 2 1 2 2 3 3 4 4 4 6 9 10 7 3 4 4 4 3 3 6 7 7 6 4 8 8 6 6 6 6 5 4 4 4 5 5 6
3 3 2 1 1 1 0 1 1 1 2 3 3 4 3 4 5 7 7 7 6 4 5 4 4 6 7 7 6 7 11 9 4 4 5 5 5 5 4 4 5 6 7
5 4 3 3 2 2 2 2 2 2 1 2 2 3 4 3 4 7 7 6 6 4 4 5 5 5 5 5 7 9 8 3 3 4 5 5 4 4 4 4 4 5 6
6 4 3 3 3 4 3 3 2 2 2 2 3 3 4 4 4 4 3 3 3 2 1 2 3 3 3 4 5 5 3 3 3 4 5 5 4 4 4 3 4 4 4
6 5 4 4 4 3 3 3 3 3 3 2 2 2 3 4 6 7 3 2 1 0 2 2 2 3 4 4 3 4 3 3 3 3 4 5 5 5 5 3 3 3 4
6 4 3 3 3 3 3 4 7 6 10 12 10 6 4 6 9 9 9 8 7 6 5 3 3 3 3 4 5 5 4 4 4 4 4 4 5 5 5 4 3 4 5
7 5 4 3 3 3 3 3 3 5 8 10 13 13 12 12 13 12 11 11 11 9 6 4 3 4 3 4 4 4 4 5 4 4 5 5 5 5 5 5 5 5 5
7 7 6 4 3 3 3 3 2 2 3 4 7 11 12 12 13 12 10 8 7 7 4 4 4 4 4 4 4 4 4 5 5 5 5 5 5 5 5 5 5 6 6
7 5 4 4 3 3 3 3 3 3 2 2 3 5 9 9 10 11 9 5 4 4 3 3 3 3 3 4 4 4 4 4 5 5 6 6 6 6 6 6 6 8 7
6 11 8 5 4 3 3 3 2 2 2 2 2 2 3 4 4 4 4 3 3 2 2 2 3 3 3 3 3 3 4 4 4 4 5 5 6 6 7 9 8 8 7
5 7 11 6 4 3 3 2 2 1 1 0 1 2 2 1 1 2 2 2 2 2 2 2 2 3 3 3 3 3 4 4 4 4 4 5 5 6 6 7 8 8 8
6 5 5 4 4 3 3 2 2 1 1 1 1 2 4 1 2 2 2 3 3 2 3 3 3 3 3 3 3 4 4 4 5 4 5 5 5 6 6 7 7 8 8
6 6 5 4 3 4 3 2 2 1 1 1 2 2 2 2 2 3 3 3 3 4 3 3 4 4 4 4 4 4 5 6 6 6 6 6 6 6 6 7 9 10 10
6 6 5 4 3 3 3 2 2 1 2 2 2 2 2 3 3 4 4 4 4 4 4 4 5 7 9 7 5 5 6 7 7 6 8 8 8 8 7 8 8 10 10
6 6 5 4 4 3 3 2 2 2 2 2 2 2 3 3 3 4 4 4 5 5 6 6 5 6 9 11 10 9 11 14 13 9 8 8 10 10 10 10 10 10 10
6 5 5 4 4 3 3 3 2 2 2 2 2 3 3 3 4 4 4 4 5 5 6 6 7 9 11 10 11 13 15 16 16 16 11 8 10 11 11 10 13 12 12
Wind_Direction
233 228 237 246 242 239 245 260 271 287 305 313 327 342 349 355 8 22 6 5 10 358 355 353 340 330 330 323 311 265 233 217 247 274 272 284 284 290 299 284 266 250 250
224 221 234 245 244 241 250 262 263 273 288 281 298 309 311 326 335 347 340 353 351 344 341 340 332 335 334 320 304 274 248 230 234 267 281 286 276 281 281 283 276 263 251
212 217 232 240 237 242 250 258 255 255 272 279 276 277 286 296 298 298 295 306 312 312 315 318 314 324 321 313 304 288 269 256 231 255 278 277 283 290 294 286 276 269 264
203 212 228 235 234 239 245 246 246 244 253 263 262 266 273 281 276 277 281 290 302 305 302 299 297 288 280 289 293 284 273 270 256 261 274 279 279 289 288 289 294 279 277
200 216 230 234 233 237 240 241 243 246 248 249 260 272 275 271 258 253 261 272 291 306 310 307 300 300 295 286 289 281 265 262 263 266 276 279 282 290 285 282 287 297 282
206 225 232 228 231 236 239 239 242 249 255 253 255 261 271 267 278 276 255 249 265 282 298 306 306 310 319 330 330 326 298 261 257 253 266 275 279 271 268 271 281 298 294
214 228 227 224 232 237 236 235 240 244 247 255 258 254 262 269 276 281 277 250 245 257 269 286 300 310 325 314 319 328 324 309 282 257 262 267 270 262 268 276 268 264 262
216 230 230 225 236 240 235 241 244 241 242 249 256 254 259 269 275 275 277 261 248 255 254 257 268 287 295 299 300 307 302 293 284 270 251 260 261 263 252 261 272 275 270
213 229 231 220 228 234 239 247 244 241 249 247 251 253 256 270 276 274 271 241 256 266 260 251 252 267 287 300 298 299 302 295 283 270 269 274 278 279 274 265 263 267 274
216 228 228 210 215 229 242 251 247 240 254 260 262 253 249 263 276 275 264 217 252 268 272 260 258 263 280 292 283 286 295 295 302 306 299 295 288 282 278 255 250 260 266
193 173 152 188 210 228 251 261 268 269 277 278 279 278 265 264 278 278 263 214 226 252 266 267 259 270 279 288 288 267 277 290 291 293 295 295 292 281 270 256 242 247 255
131 115 93 66 52 68 57 339 335 319 311 307 306 306 296 285 283 287 279 250 226 224 248 255 262 279 287 295 296 291 298 303 291 290 289 288 289 287 281 272 259 250 248
114 103 87 70 55 48 57 34 19 15 356 330 327 319 317 321 313 308 300 287 259 230 243 257 277 294 306 309 310 315 317 306 294 288 285 283 276 276 286 287 280 270 264
115 105 90 79 60 47 48 49 49 28 13 358 349 332 324 329 333 330 317 316 309 272 270 313 332 344 339 320 324 329 321 294 289 284 288 288 288 288 288 285 285 294 290
114 106 93 83 78 63 55 53 53 43 50 40 357 341 349 345 340 342 346 353 357 53 81 54 34 15 6 356 343 331 323 324 317 295 293 299 300 298 294 290 278 279 276
120 114 106 97 83 76 75 57 45 54 51 52 48 43 21 17 9 25 40 47 55 77 81 56 37 21 3 351 343 337 331 332 326 317 310 304 303 301 300 298 285 283 285
130 128 116 107 100 91 83 87 61 21 29 37 36 37 40 35 36 38 46 54 55 62 62 50 33 14 359 349 341 336 331 328 324 323 321 319 314 309 305 304 301 295 291
127 129 125 117 112 105 99 92 87 73 33 1 7 23 30 36 38 39 42 52 46 42 44 37 23 6 358 354 346 340 337 341 345 342 338 334 327 319 313 309 304 299 300
130 128 125 120 114 110 105 97 87 77 64 18 357 4 16 23 32 33 39 51 50 37 28 21 11 1 355 351 347 344 348 353 352 350 348 343 338 331 322 314 307 302 296
138 142 136 128 120 114 110 106 98 86 66 36 13 348 349 18 27 17 24 30 34 21 5 357 350 346 342 339 339 340 341 345 345 344 339 336 333 330 326 324 319 311 301
135 142 139 129 129 132 130 131 133 128 117 17 316 321 1 26 2 351 349 348 342 329 321 319 319 317 314 313 315 320 325 324 323 324 325 325 325 324 322 320 319 318 313
135 135 138 140 140 142 145 151 154 162 193 256 291 318 344 352 318 311 307 304 299 289 285 286 288 284 280 283 288 295 299 300 301 304 307 309 313 315 316 317 318 317 315
138 138 138 141 145 148 145 154 167 186 220 254 272 288 303 298 291 288 288 290 292 292 290 284 282 284 282 276 270 268 274 279 280 283 289 294 297 299 303 307 310 313 313
143 145 147 150 152 156 163 174 187 208 231 255 270 276 279 281 284 285 285 286 288 288 286 283 278 280 283 285 281 272 267 268 271 272 273 278 285 288 289 291 294 297 301
144 147 152 158 162 167 174 183 201 224 245 257 265 272 279 283 284 286 287 286 288 287 288 286 279 280 281 281 280 278 276 277 277 275 270 270 273 276 278 280 282 286 288
149 152 155 159 166 173 180 192 211 227 242 255 262 267 273 278 282 285 288 289 290 288 288 286 283 283 284 284 282 281 281 281 281 279 275 270 268 269 270 272 275 276 279